Abbeville, LA

2:33 PM CDT on July 26, 2017 (GMT -0500)
Abbeville

Weather History for KIYA - October, 2012

Change the Weather History Date:

Sunday, October 14, 2012

  Actual Average (KARA) Record (KARA)
Temperature  
Mean Temperature 78 °F -  
Max Temperature 86 °F 78 °F 92 °F (2015)
Min Temperature 71 °F 57 °F 45 °F (1987)
Cooling Degree Days 14    
Growing Degree Days 28 (Base 50)    
Moisture  
Dew Point 74 °F    
Average Humidity 87    
Maximum Humidity 100    
Minimum Humidity 60    
Precipitation  
Precipitation 0.00 in - - ()
Sea Level Pressure  
Sea Level Pressure 30.04 in    
Wind  
Wind Speed 4 mph ()    
Max Wind Speed 14 mph    
Max Gust Speed 18 mph    
Visibility 9.1 miles    
Events      
Averages and records for this station are not official NWS values.
T = Trace of Precipitation, MM = Missing Value Source: Averaged Metar Reports

Daily Weather History Graph

Daily Weather History Graph

Search for Another Location

Airport or City:

Trip Planner

Search our weather history database for the weather conditions in past years. The results will help you decide how hot, cold, wet, or windy it might be!

Date:

Astronomy

Oct. 14, 2012 Rise Set
Actual Time 7:09 AM CDT 6:38 PM CDT
Civil Twilight 6:45 AM CDT 7:02 PM CDT
Nautical Twilight 6:17 AM CDT 7:29 PM CDT
Astronomical Twilight 5:50 AM CDT 7:57 PM CDT
Moon 6:10 AM CDT (10/14) 5:59 PM CDT (10/14)
Length of Visible Light 12h 16m
Length of Day
11h 28m
Waning Crescent, 1% of the Moon is Illuminated
Oct 14
Waning Crescent
Oct 15
New
Oct 21
First Quarter
Oct 29
Full
Nov 6
Last Quarter

Hourly Weather History & Observations

Time (CDT) Temp. Heat Index Dew Point Humidity Pressure Visibility Wind Dir Wind Speed Gust Speed Precip Events Conditions
12:15 AM 76.6 °F - 76.1 °F 98% 30.07 in 10.0 mi SE 5.8 mph - N/A   Clear
12:35 AM 76.5 °F - 76.1 °F 99% 30.06 in 10.0 mi SE 5.8 mph - N/A   Clear
12:55 AM 76.6 °F - 76.1 °F 98% 30.05 in 10.0 mi SE 6.9 mph - N/A   Clear
1:15 AM 76.5 °F - 76.1 °F 99% 30.05 in 10.0 mi SE 5.8 mph - N/A   Clear
1:35 AM 76.1 °F - 75.7 °F 99% 30.05 in 10.0 mi East 3.5 mph - N/A   Scattered Clouds
1:55 AM 75.2 °F - 75.2 °F 100% 30.05 in 10.0 mi Calm Calm - N/A   Scattered Clouds
2:35 AM 74.8 °F - 74.8 °F 100% 30.03 in 10.0 mi SE 4.6 mph - N/A   Clear
2:55 AM 75.7 °F - 75.7 °F 100% 30.02 in 10.0 mi SE 8.1 mph - N/A   Scattered Clouds
3:15 AM 76.5 °F - 75.9 °F 98% 30.02 in 10.0 mi SE 6.9 mph - N/A   Clear
3:35 AM 76.5 °F - 75.9 °F 98% 30.01 in 10.0 mi SSE 6.9 mph - N/A   Mostly Cloudy
3:55 AM 76.5 °F - 75.9 °F 98% 30.01 in 10.0 mi SSE 5.8 mph - N/A   Mostly Cloudy
4:15 AM 76.3 °F - 75.7 °F 98% 30.01 in 10.0 mi SSE 4.6 mph - N/A   Mostly Cloudy
4:35 AM 76.3 °F - 75.6 °F 98% 30.01 in 10.0 mi SSE 5.8 mph - N/A   Clear
4:55 AM 76.3 °F - 75.7 °F 98% 30.01 in 10.0 mi South 4.6 mph - N/A   Mostly Cloudy
5:15 AM 76.1 °F - 75.4 °F 98% 30.02 in 10.0 mi SSE 3.5 mph - N/A   Scattered Clouds
5:35 AM 75.7 °F - 75.4 °F 99% 30.02 in 10.0 mi Calm Calm - N/A   Scattered Clouds
5:55 AM 75.2 °F - 75.2 °F 100% 30.03 in 10.0 mi Calm Calm - N/A   Scattered Clouds
6:15 AM 74.7 °F - 74.7 °F 100% 30.03 in 7.0 mi Calm Calm - N/A   Clear
6:35 AM 73.6 °F - 73.6 °F 100% 30.04 in 5.0 mi Calm Calm - N/A   Clear
6:55 AM 72.7 °F - 72.7 °F 100% 30.05 in 4.0 mi Calm Calm - N/A   Scattered Clouds
7:15 AM 71.8 °F - 71.8 °F 100% 30.05 in 1.8 mi Calm Calm - N/A   Mist
7:35 AM 71.6 °F - 71.6 °F 100% 30.07 in 2.0 mi Calm Calm - N/A   Clear
7:55 AM 72.5 °F - 72.5 °F 100% 30.08 in 4.0 mi Calm Calm - N/A   Scattered Clouds
8:15 AM 74.5 °F - 74.5 °F 100% 30.08 in 4.0 mi East 3.5 mph - N/A   Scattered Clouds
8:35 AM 76.8 °F - 76.8 °F 100% 30.09 in 10.0 mi Calm Calm - N/A   Clear
8:55 AM 78.1 °F - 77.0 °F 96% 30.10 in 10.0 mi Calm Calm - N/A   Clear
9:15 AM 79.0 °F - 77.9 °F 96% 30.11 in 10.0 mi Calm Calm - N/A   Clear
9:35 AM 81.7 °F 89.7 °F 77.4 °F 87% 30.11 in 10.0 mi SE 3.5 mph - N/A   Clear
9:55 AM 83.5 °F 91.6 °F 75.6 °F 77% 30.12 in 10.0 mi SW 4.6 mph - N/A   Clear
10:15 AM 84.7 °F 92.1 °F 74.1 °F 70% 30.12 in 10.0 mi SSW 5.8 mph - N/A   Scattered Clouds
10:35 AM 82.9 °F 89.1 °F 73.6 °F 73% 30.12 in 10.0 mi WSW 4.6 mph - N/A   Scattered Clouds
10:55 AM 85.1 °F 92.6 °F 73.9 °F 69% 30.11 in 10.0 mi South 3.5 mph - N/A   Scattered Clouds
11:15 AM 84.6 °F 91.4 °F 73.4 °F 69% 30.12 in 10.0 mi SSW 6.9 mph - N/A   Scattered Clouds
11:35 AM 86.7 °F 95.0 °F 73.9 °F 66% 30.11 in 10.0 mi SSW 8.1 mph - N/A   Scattered Clouds
11:55 AM 86.2 °F 93.8 °F 73.8 °F 66% 30.11 in 10.0 mi WSW 10.4 mph - N/A   Mostly Cloudy
12:15 PM 85.3 °F 91.1 °F 71.8 °F 64% 30.10 in 10.0 mi SW 4.6 mph - N/A   Mostly Cloudy
12:35 PM 84.9 °F 89.1 °F 69.8 °F 60% 30.09 in 10.0 mi West 13.8 mph 18.4 mph N/A   Mostly Cloudy
12:55 PM 82.0 °F 85.9 °F 70.2 °F 67% 30.07 in 10.0 mi SSW 5.8 mph - N/A   Scattered Clouds
1:15 PM 83.8 °F 89.2 °F 72.0 °F 67% 30.07 in 10.0 mi SSW 5.8 mph - N/A   Scattered Clouds
1:35 PM 84.4 °F 90.6 °F 72.9 °F 68% 30.05 in 10.0 mi Calm Calm - N/A   Scattered Clouds
1:55 PM 85.8 °F 93.4 °F 73.9 °F 67% 30.03 in 10.0 mi SSE 5.8 mph - N/A   Clear
2:15 PM 85.5 °F 92.6 °F 73.6 °F 67% 30.01 in 10.0 mi South 9.2 mph - N/A   Scattered Clouds
2:35 PM 86.0 °F 93.4 °F 73.6 °F 66% 30.01 in 10.0 mi SSE 9.2 mph - N/A   Scattered Clouds
3:15 PM 86.4 °F 95.1 °F 74.5 °F 68% 30.00 in 10.0 mi South 4.6 mph - N/A   Mostly Cloudy
3:35 PM 85.1 °F 92.2 °F 73.4 °F 68% 30.01 in 10.0 mi South 11.5 mph - N/A   Mostly Cloudy
3:55 PM 85.8 °F 93.0 °F 73.2 °F 66% 30.01 in 10.0 mi South 11.5 mph - N/A   Overcast
4:15 PM 86.5 °F 93.8 °F 72.9 °F 64% 30.00 in 10.0 mi SSW 8.1 mph - N/A   Mostly Cloudy
4:35 PM 84.6 °F 91.7 °F 73.8 °F 70% 30.01 in 10.0 mi SSW 6.9 mph - N/A   Mostly Cloudy
4:55 PM 84.6 °F 91.7 °F 73.8 °F 70% 30.00 in 10.0 mi SSW 6.9 mph - N/A   Overcast
5:15 PM 86.4 °F 91.8 °F 70.9 °F 60% 30.00 in 10.0 mi SW 11.5 mph - N/A   Mostly Cloudy
5:35 PM 85.3 °F 90.8 °F 71.6 °F 63% 30.00 in 10.0 mi SSW 8.1 mph - N/A   Clear
5:55 PM 83.8 °F 90.8 °F 73.8 °F 72% 30.00 in 10.0 mi SSW 9.2 mph - N/A   Scattered Clouds
6:15 PM 82.6 °F 88.8 °F 73.9 °F 75% 30.00 in 10.0 mi South 6.9 mph - N/A   Scattered Clouds
6:35 PM 81.1 °F 86.6 °F 74.1 °F 79% 30.00 in 10.0 mi SSW 4.6 mph - N/A   Scattered Clouds
7:15 PM 77.9 °F - 74.3 °F 89% 30.00 in 10.0 mi South 3.5 mph - N/A   Clear
7:35 PM 77.0 °F - 74.5 °F 92% 30.00 in 10.0 mi South 3.5 mph - N/A   Clear
7:55 PM 76.1 °F - 74.8 °F 96% 30.01 in 10.0 mi SSE 4.6 mph - N/A   Clear
8:15 PM 75.4 °F - 74.7 °F 98% 30.01 in 10.0 mi SSE 5.8 mph - N/A   Clear
8:35 PM 75.0 °F - 75.0 °F 100% 30.01 in 10.0 mi SSE 5.8 mph - N/A   Clear
8:55 PM 75.2 °F - 75.2 °F 100% 30.02 in 10.0 mi South 4.6 mph - N/A   Clear
9:15 PM 74.8 °F - 74.8 °F 100% 30.02 in 10.0 mi South 3.5 mph - N/A   Clear
9:35 PM 75.4 °F - 75.4 °F 100% 30.02 in 10.0 mi Calm Calm - N/A   Clear
9:55 PM 75.2 °F - 75.2 °F 100% 30.02 in 10.0 mi SSW 3.5 mph - N/A   Clear
10:15 PM 75.2 °F - 75.2 °F 100% 30.03 in 10.0 mi SW 3.5 mph - N/A   Clear
10:35 PM 75.0 °F - 75.0 °F 100% 30.03 in 10.0 mi SSW 4.6 mph - N/A   Clear
10:55 PM 74.7 °F - 74.7 °F 100% 30.02 in 7.0 mi SSW 3.5 mph - N/A   Clear
11:15 PM 74.5 °F - 74.5 °F 100% 30.01 in 7.0 mi Calm Calm - N/A   Clear
11:35 PM 73.4 °F - 73.4 °F 100% 30.01 in 1.5 mi SSW 3.5 mph - N/A   Mist
11:55 PM 74.1 °F - 74.1 °F 100% 30.02 in 7.0 mi Calm Calm - N/A   Clear